#timestamp,LO_Frequency,Hit,StdDev 
1527818415.6,286047002.5,N
1527818435.5,286047003.8,N
1527818455.3,286047001.7,N
1527818475.1,286047000.7,N
1527818495.9,286047003.9,N
1527818515.7,286047001.3,N
1527818535.6,286047004.1,N
1527818555.4,286047002.9,N
1527818575.2,286047005.6,N
1527818595.1,286047003.8,N
1527818596.0,286047003.8,N
1527818615.8,286047005.2,N
1527818635.6,286047003.4,N
1527818655.5,286047005.7,N
1527818675.3,286047003.7,N
1527818695.2,286047001.3,N
1527818715.9,286047003.3,N
1527818735.7,286047003.2,N
1527818755.6,286047003.6,N
1527818775.4,286047004.0,N
1527818795.3,286047002.0,N
1527818815.1,286047003.1,N
1527818835.8,286047003.8,N
1527818855.7,286047002.0,N
1527818875.5,286046999.7,N
1527818895.4,286047000.1,N
1527818915.2,286047004.0,N
1527818935.0,286047001.5,N
1527818935.9,286047001.5,N
1527818955.8,286047001.6,N
1527818975.6,286047003.7,N
1527818995.4,286047004.3,N
1527819015.3,286046999.7,N
1527819035.1,286047000.9,N
1527819055.9,286046998.2,N
1527819075.7,286046998.3,N
1527819095.5,286047000.9,N
1527819115.4,286047000.9,N
1527819135.2,286046998.4,N
1527819155.0,286046998.2,N
1527819156.0,286046998.2,N
1527819175.8,286047000.1,N
1527819195.6,286047000.4,N
1527819215.5,286046998.2,N
1527819235.3,286046998.2,N
1527819255.1,286046998.2,N
1527819275.9,286046998.5,N
1527819295.7,286046998.6,N
1527819315.6,286046998.8,N
1527819335.4,286046998.7,N
1527819355.2,286046998.9,N
1527819375.1,286046999.4,N
1527819376.0,286046999.4,N
1527819395.8,286046997.5,N
1527819415.6,286046995.4,N
1527819435.5,286046997.5,N
1527819455.3,286046997.6,N
1527819475.2,286046997.0,N
1527819495.9,286046999.4,N
1527819515.7,286046999.0,N
1527819535.6,286046997.6,N
1527819555.4,286046997.3,N
1527819575.2,286046997.5,N
1527819595.1,286046997.7,N
1527819596.0,286046997.7,N
1527819615.8,286046995.0,Y
1527819635.7,286046997.4,P
1527819655.5,286046999.2,N
1527819675.3,286046996.6,P
1527819695.2,286046999.6,N
1527819715.0,286046998.6,N
1527819715.9,286046998.6,N
1527819735.8,286046996.5,Y
1527819755.6,286047000.3,P
1527819775.4,286047001.0,N
1527819795.3,286047001.1,N
1527819815.1,286046999.0,N
1527819835.9,286046998.9,N
1527819855.7,286046998.7,N
1527819875.5,286046998.8,N
1527819895.4,286046998.3,N
1527819915.2,286047000.8,N
1527819935.0,286046998.5,N
1527819935.9,286046998.5,N
1527819955.8,286046999.0,N
1527819975.6,286046996.7,Y
1527819995.5,286046999.9,P
1527820015.3,286047002.1,P
1527820035.1,286047001.0,N
1527820055.9,286046999.8,N
1527820075.7,286047000.6,N
1527820095.5,286046998.1,N
1527820115.4,286046998.7,N
1527820135.2,286046999.0,N
1527820155.1,286047001.0,N
1527820156.0,286047001.0,N
1527820175.8,286046998.5,N
1527820195.7,286046998.3,N
1527820215.5,286046999.5,N
1527820235.3,286046998.7,N
1527820255.2,286047001.1,N
1527820275.9,286047000.8,N
1527820295.7,286047000.8,N
1527820345.6,286047000.1,E
1527820355.5,286047000.2,N
1527820375.4,286047000.8,P
1527820395.2,286046999.8,N
1527820415.0,286047000.7,N
1527820415.9,286047000.7,N
1527820435.8,286046998.2,Y
1527820455.6,286046998.4,P
1527820475.5,286047000.7,N
1527820495.3,286046999.2,N
1527820515.1,286046996.9,Y
1527820535.9,286046998.7,P
1527820555.7,286046997.2,P
1527820575.5,286046997.4,N
1527820595.4,286046999.0,N
1527820615.2,286046996.9,Y
1527820635.1,286046996.6,P
1527820636.0,286046996.6,P
1527820655.8,286046996.5,P
1527820675.6,286046997.2,Y
1527820695.5,286046998.6,P
1527820715.3,286047000.9,N
1527820735.2,286046998.5,N
1527820755.9,286046999.4,N
1527820775.7,286046999.9,N
1527820795.6,286047000.2,N
1527820815.4,286047000.2,N
1527820835.2,286047000.8,N
1527820855.1,286046998.9,N
1527820856.0,286046998.9,N
1527820875.8,286046998.2,N
1527820925.7,286046998.8,E
1527820935.6,286047001.1,N
1527820955.4,286047000.0,P
1527820975.3,286047000.3,N
1527820995.1,286047000.5,N
1527821015.9,286047004.0,Y
1527821035.7,286047002.6,P
1527821055.5,286047002.5,N
1527821075.4,286047000.2,N
1527821095.2,286046999.8,N
1527821115.0,286046999.7,N
1527821115.9,286046999.7,N
1527821135.8,286047002.2,N
1527821155.6,286047002.5,N
1527821175.5,286046999.8,N
1527821195.3,286047000.8,N
1527821215.1,286047002.6,N
1527821235.9,286047002.5,N
1527821255.7,286047002.0,N
1527821275.6,286047002.0,N
1527821295.4,286047001.7,N
1527821315.2,286047003.8,Y
1527821335.1,286047002.7,P
1527821336.0,286047002.7,P
1527821355.8,286047002.8,P
1527821375.6,286047004.1,Y
1527821395.5,286047001.0,P
1527821415.3,286046998.6,N
1527821435.2,286046999.0,N
1527821455.9,286047000.4,N
1527821475.7,286046998.7,N
1527821495.6,286047001.2,N
1527821515.4,286046998.9,N
1527821535.3,286047001.1,N
1527821555.1,286047000.8,N
1527821575.8,286047001.1,N
1527821595.7,286046998.1,N
1527821615.5,286047001.0,N
1527821635.4,286046999.8,N
1527821655.2,286047001.0,N
1527821675.0,286047001.1,N
1527821675.9,286047001.1,N
1527821695.8,286047002.2,N
1527821715.6,286047000.1,N
1527821735.5,286046999.7,N
1527821755.3,286047000.0,N
1527821775.1,286047002.6,N
1527821795.9,286047000.1,N
1527821815.7,286047002.4,N
1527821835.5,286047002.6,N
1527821855.4,286047002.0,N
1527821875.2,286047002.6,N
1527821895.0,286047000.1,N
1527821896.0,286047000.1,N
1527821915.8,286046999.9,N
1527821935.6,286046999.7,N
1527821955.5,286046999.7,N
1527821975.3,286046999.8,N
1527821995.1,286047002.1,N
